Temp
56 57 58 57 56 56 56 57 57 58 57 57 57 56 55 55 56 56 56 56 57 57 57 57 57 58 57 58 58 58 57 58 58 55 57 58 59 60 61 61 62 64 64
54 55 57 56 54 56 56 56 56 57 56 56 55 54 54 54 53 54 56 56 56 56 57 56 56 57 57 57 57 56 56 57 58 54 52 51 58 59 62 62 61 62 62
51 53 54 54 53 53 55 56 56 56 56 55 53 53 52 53 53 54 55 56 56 56 55 56 56 56 57 57 56 56 55 54 56 56 54 50 50 53 59 61 62 62 62
51 53 53 54 53 54 54 55 55 55 55 54 53 52 51 50 52 52 54 55 56 56 55 55 56 56 56 56 57 58 56 54 53 56 57 55 53 50 51 58 59 60 62
51 52 53 53 55 55 54 54 54 54 54 53 52 52 51 51 52 53 53 56 57 56 56 55 55 55 56 56 56 56 55 55 54 53 53 52 53 53 48 47 55 61 63
50 51 53 54 54 55 54 54 53 54 54 53 52 51 51 51 51 52 53 55 58 57 57 55 56 56 56 56 57 55 55 55 54 54 53 51 50 50 49 50 52 54 59
49 50 52 53 53 54 54 53 53 53 53 52 51 51 51 51 50 51 52 53 55 56 56 56 56 56 56 56 56 54 54 54 53 53 53 54 52 52 51 50 50 52 58
49 50 51 51 52 52 53 53 52 52 52 52 51 51 51 50 51 51 52 52 55 56 56 55 56 56 55 55 55 55 54 54 53 52 53 53 55 54 52 52 50 50 54
48 49 50 50 51 52 53 52 52 52 52 51 51 50 50 50 50 51 52 52 53 53 54 54 54 54 54 54 54 54 54 53 52 53 52 52 54 54 54 52 52 50 48
48 48 49 49 50 50 51 51 51 51 51 51 50 50 50 50 50 50 50 51 52 52 52 53 52 53 53 53 53 54 55 53 53 53 52 52 53 54 54 54 52 52 50
45 46 47 48 48 49 50 50 50 49 50 50 50 49 49 49 50 49 50 51 51 52 51 52 51 52 52 52 51 52 52 53 53 54 52 52 53 53 54 53 53 53 50
44 45 46 47 48 48 49 49 49 49 49 49 49 49 49 49 49 49 50 50 51 52 51 51 51 51 51 51 50 49 51 50 51 52 51 51 53 53 54 53 52 51 52
45 45 46 46 47 47 48 48 49 49 49 49 48 49 48 48 49 49 50 50 51 50 51 50 49 49 49 49 49 49 49 49 50 51 51 52 52 52 52 51 51 51 51
44 45 46 46 46 46 47 47 48 48 48 48 47 47 48 48 48 49 49 49 50 50 49 49 49 48 48 48 48 48 48 48 49 50 50 51 51 51 52 52 51 51 49
44 43 44 44 45 45 45 46 46 46 47 46 46 47 47 47 47 47 48 49 49 49 49 48 47 48 47 48 48 47 48 47 47 48 49 49 48 46 49 49 50 49 47
43 43 43 43 43 44 44 45 44 45 45 45 45 46 46 46 46 46 46 47 47 47 47 46 46 47 47 47 48 48 47 47 46 46 48 48 46 47 48 48 49 48 47
41 41 41 41 42 42 43 42 43 43 43 43 44 45 45 45 45 45 45 45 45 45 45 45 45 45 46 46 48 48 48 46 46 46 46 46 47 46 47 47 47 48 47
40 40 41 41 43 43 42 42 43 42 41 42 43 44 43 44 44 43 43 43 44 44 44 44 44 44 45 46 47 47 48 46 46 45 45 45 45 45 45 45 45 45 45
40 40 41 41 41 41 42 40 40 41 41 42 42 43 43 42 42 42 42 43 42 42 43 43 43 42 44 44 46 46 45 44 44 44 44 44 43 44 45 44 42 42 42
40 40 40 40 39 41 41 39 39 39 39 41 41 42 41 41 41 41 41 41 41 41 41 41 42 42 43 44 45 46 44 42 43 44 43 43 43 44 45 44 42 40 42
40 41 40 39 40 40 39 38 39 38 41 41 40 40 41 40 41 41 41 41 40 39 39 39 41 40 41 42 44 45 44 42 42 42 42 42 43 45 46 45 42 42 44
39 40 38 38 40 40 38 38 38 41 40 39 39 39 40 40 41 39 40 39 38 38 38 38 39 41 41 41 43 44 45 45 41 41 43 43 42 43 44 45 46 44 43
39 40 39 39 39 38 38 36 40 40 39 38 38 39 39 39 39 38 39 38 38 37 37 37 37 39 40 40 41 43 45 45 44 42 42 42 42 42 43 44 45 45 43
38 39 38 38 38 39 38 37 38 39 37 36 38 38 38 40 39 38 38 37 37 37 37 37 37 38 38 39 40 39 40 40 41 41 42 42 43 42 41 41 42 43 41
38 38 37 37 38 40 39 39 38 38 36 36 36 37 37 37 37 37 38 38 38 38 37 38 37 37 38 39 42 42 40 40 39 41 38 38 37 37 37 37 37 38 38
39 37 37 37 37 38 39 40 40 38 35 36 37 37 38 38 36 36 37 40 41 42 42 42 41 40 41 42 43 43 43 43 44 40 37 37 36 36 36 36 37 36 37
MSLP
1020.67 1020.79 1020.81 1021.02 1021.34 1021.70 1021.85 1021.97 1022.09 1022.10 1022.12 1022.21 1022.32 1022.37 1022.41 1022.38 1022.24 1022.12 1021.91 1021.72 1021.51 1021.27 1020.99 1020.83 1020.68 1020.53 1020.22 1020.04 1019.93 1019.73 1019.50 1018.99 1018.70 1018.06 1017.32 1016.70 1016.65 1016.53 1016.28 1016.02 1015.68 1015.32 1015.00
1020.94 1020.87 1020.88 1021.02 1021.28 1021.50 1021.70 1021.86 1021.89 1021.96 1022.03 1022.17 1022.39 1022.58 1022.59 1022.53 1022.36 1022.12 1021.74 1021.52 1021.30 1021.22 1020.93 1020.83 1020.62 1020.47 1020.18 1019.92 1019.80 1019.73 1019.55 1019.31 1019.06 1018.70 1018.17 1017.34 1016.83 1016.57 1016.18 1015.95 1015.71 1015.33 1014.96
1021.03 1020.87 1020.91 1021.06 1021.35 1021.43 1021.53 1021.65 1021.70 1021.78 1021.92 1022.06 1022.30 1022.56 1022.59 1022.53 1022.21 1021.88 1021.56 1021.39 1021.24 1021.06 1020.95 1020.79 1020.61 1020.33 1020.13 1019.90 1019.72 1019.63 1019.62 1019.50 1019.13 1019.08 1018.85 1018.11 1017.55 1017.15 1016.25 1015.90 1015.69 1015.23 1014.71
1021.26 1021.10 1021.06 1021.12 1021.30 1021.31 1021.55 1021.63 1021.65 1021.68 1021.74 1021.86 1022.08 1022.31 1022.38 1022.33 1022.05 1021.87 1021.60 1021.24 1021.10 1020.97 1020.81 1020.66 1020.56 1020.37 1020.19 1019.96 1019.76 1019.56 1019.58 1019.58 1019.26 1019.15 1018.96 1019.01 1018.73 1017.88 1016.75 1016.04 1015.67 1015.26 1014.60
1021.53 1021.30 1021.14 1021.07 1021.14 1021.20 1021.26 1021.38 1021.43 1021.47 1021.53 1021.72 1021.92 1022.12 1022.10 1022.05 1021.78 1021.74 1021.47 1021.12 1020.81 1020.77 1020.65 1020.50 1020.42 1020.29 1020.16 1019.93 1019.62 1019.45 1019.51 1019.53 1019.45 1019.28 1019.05 1018.99 1018.74 1018.51 1018.11 1016.67 1015.60 1014.90 1014.34
1021.61 1021.47 1021.26 1021.08 1021.08 1021.06 1021.10 1021.15 1021.20 1021.10 1021.26 1021.42 1021.54 1021.75 1021.79 1021.68 1021.63 1021.49 1021.26 1020.89 1020.61 1020.35 1020.30 1020.24 1020.12 1020.04 1020.00 1019.77 1019.49 1019.42 1019.39 1019.42 1019.35 1019.20 1019.02 1018.92 1018.65 1018.28 1018.07 1017.29 1016.47 1015.54 1014.50
1021.85 1021.65 1021.48 1021.24 1021.14 1021.07 1020.98 1020.94 1020.94 1020.73 1020.97 1021.11 1021.21 1021.25 1021.32 1021.29 1021.23 1021.27 1021.15 1020.84 1020.36 1020.09 1019.96 1020.03 1019.89 1019.68 1019.70 1019.64 1019.49 1019.33 1019.24 1019.34 1019.26 1019.09 1018.78 1018.66 1018.48 1018.30 1017.96 1017.51 1016.78 1015.98 1014.94
1022.00 1021.76 1021.61 1021.40 1021.19 1021.03 1020.83 1020.78 1020.73 1020.57 1020.63 1020.71 1020.68 1020.72 1020.77 1020.77 1020.70 1020.69 1020.77 1020.71 1020.39 1020.06 1019.79 1019.80 1019.68 1019.49 1019.58 1019.54 1019.30 1019.06 1019.11 1019.16 1019.17 1019.10 1018.81 1018.52 1018.25 1018.10 1017.78 1017.34 1016.93 1016.15 1015.51
1022.22 1021.92 1021.58 1021.38 1021.13 1020.87 1020.72 1020.67 1020.57 1020.39 1020.31 1020.22 1020.15 1020.16 1020.18 1020.26 1020.28 1020.20 1020.24 1020.12 1020.08 1020.06 1019.87 1019.70 1019.59 1019.45 1019.36 1019.32 1019.11 1018.94 1018.89 1018.88 1018.91 1018.94 1018.78 1018.49 1018.13 1017.94 1017.63 1017.33 1016.97 1016.56 1015.86
1022.36 1021.96 1021.70 1021.38 1021.06 1020.85 1020.60 1020.40 1020.37 1020.15 1019.85 1019.82 1019.76 1019.64 1019.66 1019.73 1019.72 1019.80 1019.80 1019.78 1019.59 1019.59 1019.54 1019.39 1019.35 1019.29 1019.09 1019.07 1018.93 1018.86 1018.67 1018.57 1018.53 1018.63 1018.52 1018.31 1018.06 1017.80 1017.47 1017.18 1016.89 1016.58 1016.23
1022.74 1022.40 1021.99 1021.62 1021.36 1021.06 1020.76 1020.50 1020.18 1019.92 1019.62 1019.49 1019.32 1019.25 1019.13 1019.22 1019.24 1019.27 1019.26 1019.29 1019.23 1019.14 1019.18 1019.10 1019.08 1019.03 1018.87 1018.84 1018.74 1018.74 1018.60 1018.34 1018.24 1018.20 1018.15 1018.06 1017.90 1017.51 1017.23 1017.10 1016.85 1016.54 1016.37
1022.89 1022.67 1022.30 1021.84 1021.47 1021.21 1020.75 1020.40 1020.05 1019.79 1019.55 1019.30 1019.12 1018.92 1018.87 1018.84 1018.85 1018.75 1018.69 1018.76 1018.67 1018.61 1018.61 1018.74 1018.74 1018.68 1018.67 1018.65 1018.57 1018.54 1018.40 1018.28 1018.12 1017.78 1017.73 1017.59 1017.36 1017.09 1016.86 1016.77 1016.62 1016.54 1016.39
1022.79 1022.54 1022.16 1022.01 1021.64 1021.25 1020.87 1020.53 1020.17 1019.85 1019.51 1019.12 1018.77 1018.51 1018.45 1018.42 1018.28 1018.18 1018.18 1018.24 1018.17 1018.08 1018.17 1018.27 1018.32 1018.30 1018.37 1018.38 1018.36 1018.25 1018.14 1018.06 1017.89 1017.60 1017.41 1017.17 1016.97 1016.68 1016.52 1016.43 1016.18 1016.01 1015.95
1022.77 1022.67 1022.36 1022.07 1021.69 1021.40 1021.10 1020.68 1020.12 1019.78 1019.48 1019.06 1018.74 1018.39 1018.14 1017.97 1017.81 1017.71 1017.64 1017.61 1017.61 1017.65 1017.66 1017.67 1017.78 1017.88 1017.93 1017.99 1017.95 1017.82 1017.74 1017.70 1017.56 1017.42 1017.29 1017.07 1016.79 1016.50 1016.33 1016.17 1015.96 1015.84 1015.73
1022.90 1022.82 1022.62 1022.26 1021.90 1021.49 1021.03 1020.71 1020.24 1019.71 1019.44 1018.97 1018.57 1018.12 1017.88 1017.60 1017.32 1017.21 1017.14 1017.05 1016.99 1016.95 1017.04 1017.11 1017.08 1017.14 1017.29 1017.28 1017.27 1017.26 1017.21 1017.22 1017.12 1017.00 1016.90 1016.77 1016.62 1016.46 1016.31 1016.20 1015.92 1015.87 1015.70
1023.24 1023.05 1022.77 1022.43 1022.12 1021.74 1021.27 1020.89 1020.35 1019.79 1019.39 1018.79 1018.24 1017.76 1017.42 1017.14 1016.89 1016.69 1016.62 1016.61 1016.58 1016.58 1016.67 1016.63 1016.60 1016.54 1016.50 1016.43 1016.46 1016.51 1016.53 1016.59 1016.56 1016.44 1016.34 1016.29 1016.23 1016.08 1015.97 1015.90 1015.82 1015.83 1015.58
1023.49 1023.23 1022.97 1022.68 1022.24 1021.75 1021.35 1020.82 1020.25 1019.64 1019.09 1018.64 1018.06 1017.52 1017.14 1016.78 1016.56 1016.50 1016.42 1016.30 1016.20 1016.27 1016.18 1016.11 1016.13 1015.93 1015.74 1015.76 1015.81 1015.81 1015.79 1015.85 1015.83 1015.84 1015.84 1015.75 1015.69 1015.67 1015.57 1015.52 1015.44 1015.38 1015.34
1023.48 1023.30 1023.02 1022.53 1022.07 1021.71 1021.22 1020.71 1020.15 1019.61 1019.14 1018.58 1018.07 1017.52 1017.07 1016.57 1016.30 1016.30 1016.07 1015.91 1015.93 1015.91 1015.83 1015.71 1015.66 1015.54 1015.17 1015.18 1015.18 1015.17 1015.15 1015.09 1015.03 1015.08 1015.15 1015.25 1015.19 1015.18 1015.22 1015.20 1015.06 1014.98 1014.95
1023.40 1023.14 1022.92 1022.57 1022.06 1021.68 1021.22 1020.87 1020.30 1019.78 1019.19 1018.60 1018.05 1017.50 1017.17 1016.68 1016.29 1016.01 1015.82 1015.70 1015.67 1015.44 1015.20 1015.12 1015.08 1015.07 1014.70 1014.60 1014.54 1014.63 1014.59 1014.52 1014.34 1014.35 1014.39 1014.48 1014.43 1014.33 1014.48 1014.56 1014.45 1014.41 1014.38
1023.27 1023.10 1022.80 1022.53 1022.15 1021.65 1021.27 1020.81 1020.20 1019.73 1019.14 1018.59 1018.06 1017.47 1017.05 1016.69 1016.34 1016.07 1015.80 1015.49 1015.20 1014.89 1014.78 1014.65 1014.56 1014.38 1014.14 1013.92 1013.93 1013.98 1013.95 1013.86 1013.67 1013.63 1013.58 1013.59 1013.58 1013.55 1013.70 1013.80 1013.79 1013.76 1013.60
1023.01 1022.92 1022.78 1022.56 1022.09 1021.60 1021.24 1020.70 1020.14 1019.65 1019.12 1018.56 1017.99 1017.43 1016.92 1016.58 1016.21 1015.88 1015.55 1015.31 1015.07 1014.94 1014.65 1014.31 1013.85 1013.67 1013.48 1013.23 1013.23 1013.27 1013.28 1013.23 1013.16 1013.07 1012.86 1012.76 1012.77 1012.81 1012.86 1012.95 1013.02 1012.91 1013.18
1023.09 1022.90 1022.71 1022.36 1021.83 1021.41 1021.14 1020.67 1020.08 1019.41 1019.00 1018.51 1017.94 1017.31 1016.80 1016.42 1015.97 1015.67 1015.21 1014.96 1014.75 1014.47 1014.12 1013.84 1013.45 1013.13 1012.90 1012.76 1012.53 1012.32 1012.24 1012.27 1012.41 1012.19 1012.05 1012.00 1012.15 1012.16 1012.10 1012.15 1012.12 1012.46 1012.84
1022.92 1022.73 1022.57 1022.22 1021.81 1021.41 1021.09 1020.63 1019.79 1019.34 1018.88 1018.37 1017.76 1017.19 1016.73 1016.26 1015.83 1015.44 1015.00 1014.73 1014.45 1014.18 1013.78 1013.57 1013.07 1012.50 1012.20 1012.08 1011.94 1011.78 1011.67 1011.65 1011.64 1011.57 1011.40 1011.39 1011.41 1011.43 1011.41 1011.36 1011.51 1011.79 1012.05
1022.67 1022.42 1022.16 1021.77 1021.28 1020.89 1020.54 1020.27 1019.71 1019.24 1018.92 1018.38 1017.62 1016.98 1016.50 1015.90 1015.51 1015.23 1014.99 1014.68 1014.32 1013.84 1013.45 1013.11 1012.69 1012.32 1011.97 1011.62 1011.39 1011.25 1011.14 1011.03 1010.98 1010.80 1010.76 1010.77 1010.78 1010.84 1010.78 1010.86 1010.99 1011.12 1011.39
1022.50 1022.26 1022.07 1021.75 1021.21 1020.67 1020.24 1019.82 1019.40 1019.03 1018.59 1018.04 1017.43 1016.85 1016.35 1015.82 1015.33 1014.92 1014.64 1014.15 1013.73 1013.53 1013.11 1012.73 1012.47 1012.18 1011.62 1011.26 1011.06 1010.89 1010.74 1010.62 1010.46 1010.32 1010.49 1010.45 1010.34 1010.26 1010.22 1010.23 1010.30 1010.50 1010.77
1022.29 1022.09 1021.92 1021.62 1021.11 1020.60 1019.99 1019.41 1019.13 1018.85 1018.45 1017.78 1017.13 1016.70 1016.20 1015.70 1015.32 1014.82 1014.11 1013.73 1013.31 1012.94 1012.59 1012.25 1012.00 1011.60 1011.30 1010.90 1010.56 1010.29 1010.15 1010.05 1009.95 1009.90 1009.97 1009.84 1009.82 1009.75 1009.67 1009.66 1009.67 1009.76 1009.85
Wind_Speed
4 5 4 4 4 4 4 4 2 1 0 1 1 0 2 2 2 3 4 4 4 5 4 3 4 4 3 4 4 4 5 4 6 5 6 4 3 0 7 3 6 6 8
6 6 5 3 5 3 5 4 3 3 2 1 1 1 1 2 3 3 4 3 4 4 4 4 4 4 4 4 4 3 3 3 4 5 3 4 2 3 4 5 6 7 6
8 6 4 3 3 5 5 4 4 4 3 3 1 1 2 2 2 2 3 3 4 4 4 4 4 4 3 4 4 2 3 3 2 4 3 3 3 7 3 5 6 8 7
4 3 3 2 5 5 4 5 4 4 4 4 3 3 2 2 2 3 3 5 3 3 4 4 4 5 4 4 4 3 2 2 3 2 1 3 4 4 5 6 4 7 7
4 6 4 2 2 3 4 4 4 4 4 4 4 3 4 4 3 4 6 6 4 3 3 3 4 4 3 4 5 3 3 2 2 2 1 2 3 4 4 6 9 9 8
6 5 4 3 3 3 3 4 4 5 4 5 5 6 6 5 4 5 4 4 4 3 4 3 3 4 5 5 5 3 3 3 4 3 3 3 2 3 3 4 7 9 7
5 5 5 4 4 5 5 4 4 7 5 6 7 7 7 6 7 7 5 6 5 4 3 4 4 3 4 5 5 3 3 3 4 4 3 3 4 4 5 5 5 4 5
6 6 6 5 6 6 5 5 5 7 5 6 8 7 8 5 5 6 6 6 6 5 4 5 6 5 4 5 5 3 2 2 3 5 4 3 4 3 3 3 4 5 4
6 7 8 6 7 6 5 4 5 6 6 7 6 7 7 7 7 8 7 6 7 6 8 6 6 6 5 5 5 4 4 2 2 4 5 4 4 4 3 3 3 3 3
9 8 7 7 6 6 5 5 6 8 8 6 6 7 7 8 7 6 8 8 8 7 7 7 6 6 5 5 4 5 5 3 3 3 5 5 4 4 3 3 3 2 2
7 8 8 6 6 5 5 5 5 6 6 6 6 7 7 8 7 7 8 9 8 7 7 7 6 6 5 4 4 5 6 5 6 7 7 7 6 4 3 2 3 3 2
5 4 5 6 6 6 7 6 6 6 5 6 6 7 7 7 8 9 9 8 9 7 7 6 6 6 5 5 4 5 5 5 7 6 5 7 4 6 5 3 4 3 4
4 5 7 7 6 7 8 8 7 7 6 5 5 6 8 8 9 9 9 9 9 8 7 6 7 6 6 6 6 5 6 6 7 7 7 6 6 6 3 4 4 3 3
5 5 8 8 8 7 8 9 10 7 7 6 6 7 7 8 9 9 9 9 8 8 8 7 7 7 6 7 7 6 6 7 7 7 7 8 7 7 6 5 4 4 4
6 7 8 9 9 10 10 9 8 8 7 8 7 8 7 7 7 8 8 8 8 8 8 8 8 8 8 7 8 8 8 8 8 8 8 8 7 8 7 4 5 5 4
7 8 9 9 9 9 10 10 10 10 8 8 9 8 7 6 7 7 7 8 8 8 8 9 9 9 7 12 14 11 8 9 9 9 9 8 9 9 10 9 10 7 5
6 8 9 8 9 9 9 10 11 10 10 9 10 9 7 7 7 6 6 8 8 7 9 9 9 11 10 14 16 14 9 9 10 10 9 8 6 8 7 9 9 10 10
6 7 7 9 9 9 9 9 9 9 9 9 9 9 7 7 6 6 7 7 5 7 8 8 9 9 9 13 16 15 10 9 11 10 10 10 10 9 8 8 8 8 7
5 5 5 6 8 9 10 9 10 9 8 9 10 10 9 9 7 6 6 6 5 6 7 7 8 9 10 13 15 12 8 9 11 9 10 10 11 13 14 10 10 9 8
4 6 7 7 6 8 8 8 9 9 9 10 11 11 8 7 7 6 7 4 4 6 4 7 8 10 10 12 14 12 6 9 8 8 10 16 14 16 16 11 10 11 9
6 5 6 7 8 8 7 9 9 9 10 10 10 10 8 6 6 6 3 5 6 6 7 7 7 8 9 10 14 15 8 7 7 7 7 7 16 18 18 17 10 11 6
6 5 5 7 8 7 5 9 9 10 9 9 10 9 8 6 6 6 6 6 6 7 7 7 7 6 7 10 13 15 16 13 8 9 7 8 12 15 16 14 16 17 12
6 6 5 8 7 6 5 8 10 9 10 10 9 8 8 7 6 6 7 6 5 5 6 5 6 6 4 5 10 13 14 14 10 7 11 15 13 14 13 16 15 14 9
4 5 7 8 9 7 7 7 10 9 8 10 10 8 7 9 6 4 4 5 5 5 5 5 6 6 5 5 4 4 4 7 7 8 6 7 11 11 10 8 8 6 7
4 4 6 7 10 10 9 7 7 7 9 7 7 7 6 7 7 5 5 5 5 6 5 5 4 5 6 4 6 6 4 4 6 6 2 3 3 6 6 5 6 6 6
7 8 7 6 9 10 11 10 8 7 8 10 8 7 7 6 6 6 7 7 12 13 11 12 10 6 12 15 14 12 11 11 11 4 4 6 5 6 6 6 6 7 10
Wind_Direction
288 276 259 234 211 205 202 209 225 253 162 34 343 347 319 319 309 319 326 322 325 328 330 327 328 323 310 318 329 330 332 328 335 314 334 329 354 70 338 343 337 346 331
283 283 272 216 202 192 214 225 238 247 210 190 208 281 304 289 286 295 308 311 331 334 327 331 325 318 315 322 324 350 335 299 349 334 323 345 327 332 2 358 344 344 329
287 285 261 229 200 215 216 227 238 240 224 198 171 269 259 268 280 308 316 327 322 334 335 329 325 322 310 312 327 319 346 326 322 352 331 333 331 330 311 329 336 330 338
349 303 283 223 211 232 236 241 249 245 225 192 204 227 250 287 263 290 289 301 292 314 332 334 335 327 318 306 306 313 325 274 325 329 117 289 286 325 322 320 318 329 335
3 7 5 262 243 240 247 252 255 253 231 216 224 237 252 258 279 284 292 294 285 271 318 326 325 327 313 310 316 311 322 290 288 269 339 323 284 252 277 312 330 336 345
357 358 348 359 321 304 290 282 277 270 244 232 227 235 253 274 279 277 276 284 296 301 292 294 294 308 313 322 324 320 327 309 277 268 238 246 280 294 275 280 316 321 332
356 348 350 337 314 299 296 288 273 278 265 246 240 232 240 245 255 266 274 277 279 282 287 305 292 296 308 312 305 294 340 335 309 304 294 261 261 270 272 272 304 316 324
349 334 319 304 295 291 290 288 287 285 279 257 247 235 236 240 240 241 251 266 275 285 295 287 289 297 304 298 295 302 269 287 315 319 312 301 284 296 287 292 296 319 316
346 336 328 318 305 295 286 276 289 282 274 264 251 241 238 236 246 248 246 246 261 276 282 278 281 289 292 290 288 289 285 272 298 306 293 292 287 289 285 279 292 280 305
339 335 331 323 323 313 300 295 283 278 278 272 251 248 242 239 241 247 247 251 257 257 263 267 268 275 282 287 297 296 296 262 250 286 293 290 287 293 302 308 310 298 276
323 323 325 326 324 323 328 312 313 309 301 284 273 257 252 247 242 241 248 251 255 252 255 256 259 263 273 278 280 284 291 299 291 285 280 284 276 282 295 311 329 319 315
306 332 349 346 353 346 345 342 332 324 308 301 290 269 262 254 249 246 245 244 246 243 241 247 250 256 261 264 263 270 278 283 283 285 277 274 267 261 264 247 288 298 301
3 360 2 351 342 341 344 337 325 314 308 312 306 296 279 266 256 250 250 247 245 240 241 237 242 245 249 253 250 253 265 271 275 285 271 269 270 269 264 278 271 236 241
3 349 352 345 339 334 332 331 327 325 317 316 309 296 285 270 260 256 249 243 240 243 238 233 237 240 243 243 247 246 249 259 266 274 280 284 288 286 295 285 287 292 285
347 345 337 332 330 331 329 323 316 317 312 309 303 293 287 281 264 255 250 247 239 236 235 238 234 236 236 236 234 237 240 246 258 263 266 269 275 280 266 274 283 284 276
327 329 328 328 328 324 320 318 317 316 317 309 302 299 292 285 272 262 253 250 249 244 241 241 239 240 237 233 233 233 234 239 245 258 265 267 270 269 264 262 261 251 263
316 320 317 311 312 317 318 319 320 318 320 315 310 306 299 289 282 274 263 256 250 247 246 247 243 247 244 239 243 241 237 237 242 247 254 262 258 260 257 260 264 254 231
323 324 321 325 326 320 320 320 324 320 318 316 313 316 310 294 291 282 268 263 255 252 254 256 251 254 258 249 248 246 241 240 241 240 244 250 259 255 250 252 253 256 254
298 287 298 305 315 322 322 324 321 319 321 323 322 321 319 308 303 289 280 273 266 259 247 239 250 250 262 249 249 245 241 245 249 240 237 237 247 247 247 243 245 252 250
311 314 320 314 305 319 322 323 324 325 327 328 320 315 312 304 302 298 296 281 249 252 247 265 257 259 263 261 252 247 237 244 249 247 244 241 240 246 244 238 237 247 249
314 316 321 315 306 312 322 327 324 325 318 315 315 313 312 305 291 293 272 280 282 279 281 276 274 259 248 262 262 255 240 240 253 252 258 245 243 249 245 237 227 234 235
318 316 313 308 307 312 323 323 321 321 314 312 314 314 311 306 299 293 293 290 287 284 280 281 284 270 268 264 268 261 249 240 236 246 252 257 250 251 249 242 242 236 231
312 307 296 302 296 296 301 308 313 319 321 317 312 311 313 309 305 307 304 305 297 283 284 281 282 286 285 279 270 273 271 265 255 244 249 256 256 256 256 245 241 236 233
307 313 321 329 326 324 308 283 299 308 310 310 313 314 314 318 315 305 291 293 291 288 280 280 279 285 289 286 280 264 266 269 263 264 261 258 254 245 246 247 243 228 224
314 322 322 321 319 324 320 313 302 310 317 309 295 301 305 306 308 293 285 283 266 251 277 274 267 285 292 276 277 284 274 259 250 264 232 242 235 246 246 234 228 223 217
330 328 315 304 311 317 319 322 329 328 325 327 331 322 315 314 310 311 312 276 275 285 281 274 262 268 259 277 286 286 284 285 281 267 245 257 249 243 244 240 238 225 223